DateTimeUTC,F1_A11,F1_S11,BsB_S11,BsG_S11,BsR_S11,BbsB_S11,BbsG_S11,BbsR_S11,BaB_A11,BaG_A11,BaR_A11,Tu_S11,T_S11,Uu_S11,U_S11,P_S11,T1_A11
2021-06-04T03:00:00Z,00000200,20000000,,,,,,,-000.15,-000.00,-000.12,16.5,23.6,02.5,01.6,0672.9,30.9
2021-06-04T03:01:00Z,00000200,20000000,,,,,,,-000.14,-000.24,0000.29,16.5,23.7,02.3,01.5,0672.9,30.9
2021-06-04T03:02:00Z,00000200,20000000,,,,,,,0000.31,0000.63,-000.28,16.5,23.7,02.3,01.5,0672.9,30.9
2021-06-04T03:03:00Z,00000200,60000000,,,,,,,0000.11,-000.33,-000.33,16.5,23.7,02.3,01.5,0672.9,30.9
2021-06-04T03:04:00Z,00000200,40000000,0000.20,0000.15,0000.40,-000.50,0000.20,0000.21,-000.03,0000.11,0000.26,16.7,23.5,02.5,01.6,0673.8,30.9
2021-06-04T03:05:00Z,00000200,00000000,-000.38,0000.03,0000.15,-000.02,0000.08,0000.06,-000.09,-000.02,-000.13,16.8,23.5,02.5,01.6,0673.9,30.9
2021-06-04T03:06:00Z,00000200,00000000,-000.48,0000.28,-000.18,-000.04,0000.20,-000.14,0000.07,0000.15,0000.11,16.8,23.4,02.6,01.7,0673.9,30.9
2021-06-04T03:07:00Z,00000200,00000000,-000.04,-000.01,0000.07,0000.48,-000.02,-000.08,0000.02,-000.01,0000.25,16.8,23.4,02.7,01.8,0673.9,30.9
2021-06-04T03:08:00Z,00000200,00000000,0000.11,-000.12,0000.01,-000.47,-000.11,0000.29,-000.11,-000.02,0000.12,16.7,23.4,02.7,01.8,0673.9,30.9
2021-06-04T03:09:00Z,00000200,00000000,-000.09,0000.13,-000.15,-000.05,-000.12,0000.08,0000.04,0000.06,-000.30,16.7,23.4,02.7,01.8,0673.9,30.9
2021-06-04T03:10:00Z,00000200,00000000,0000.73,-000.10,0000.12,0000.08,0000.19,0000.02,0000.15,-000.40,0000.06,16.7,23.4,02.6,01.8,0673.9,30.9
2021-06-04T03:11:00Z,00000200,00000000,-000.29,0000.32,-000.02,0000.31,-000.00,-000.15,-000.38,0000.05,-000.03,16.7,23.4,02.5,01.7,0673.9,30.9
2021-06-04T03:12:00Z,00000200,00000000,-000.07,0000.06,0000.15,-000.05,0000.31,0000.11,-000.21,-000.21,-000.17,16.7,23.3,02.6,01.7,0673.9,30.9
2021-06-04T03:13:00Z,00000200,00000000,0000.48,0000.13,-000.01,-000.25,0000.17,0000.11,0000.28,0000.10,0000.46,16.7,23.3,02.6,01.7,0673.9,30.9
2021-06-04T03:14:00Z,00000200,00000000,0000.12,-000.05,-000.07,-000.24,0000.10,0000.05,0000.02,0000.39,-000.32,16.7,23.3,02.6,01.7,0673.9,30.9
2021-06-04T03:15:00Z,00000200,00000000,0000.37,-000.25,-000.06,-000.45,0000.11,-000.01,0000.13,0000.33,0000.34,16.7,23.4,02.4,01.6,0673.9,30.9
2021-06-04T03:16:00Z,00000200,00000000,0001.14,0000.05,0000.10,-000.11,0000.03,0000.16,0000.31,-000.25,-000.10,16.8,23.4,02.6,01.7,0673.9,30.9
2021-06-04T03:17:00Z,00000200,00000000,-000.07,0000.64,0000.22,-000.34,-000.21,-000.04,0000.13,0000.25,0000.10,16.8,23.4,02.6,01.8,0673.9,30.9
2021-06-04T03:18:00Z,00000200,00000000,0001.35,0000.76,0000.56,0000.18,0000.01,0000.18,-000.02,0000.08,0000.10,16.9,23.4,02.6,01.8,0673.9,30.9
2021-06-04T03:19:00Z,00000200,00000000,0000.88,0000.71,0000.45,0000.15,0000.13,-000.01,0000.24,0000.25,0000.04,16.9,23.4,02.7,01.8,0673.9,30.9
2021-06-04T03:20:00Z,00000200,00000000,0001.02,0000.82,0000.58,0000.06,0000.18,0000.01,0000.16,0000.03,0000.38,16.9,23.4,02.6,01.7,0673.9,30.9
2021-06-04T03:21:00Z,00000200,00000000,0001.05,0000.80,0000.70,0000.34,0000.37,-000.02,0000.28,0000.19,0000.09,16.9,23.4,02.6,01.7,0673.9,30.9
2021-06-04T03:22:00Z,00000200,00000000,0000.90,0001.18,0000.70,0000.30,0000.26,-000.20,0000.25,0000.28,0000.04,16.8,23.4,02.6,01.7,0673.9,30.9
2021-06-04T03:23:00Z,00000200,00000000,0000.73,0000.91,0000.55,-000.11,-000.06,0000.06,0000.23,0000.21,0000.27,16.8,23.4,02.6,01.7,0673.9,30.9
2021-06-04T03:24:00Z,00000200,00000000,0001.90,0000.76,0000.71,0000.53,0000.31,0000.14,0000.32,0000.09,-000.02,16.8,23.4,02.7,01.8,0673.9,30.9
2021-06-04T03:25:00Z,00000200,00000000,0001.13,0000.94,0000.23,0000.06,0000.21,-000.05,0000.44,0000.16,0000.24,16.8,23.4,02.6,01.7,0673.9,30.9
2021-06-04T03:26:00Z,00000200,00000000,0001.09,0000.58,0000.65,-000.19,0000.25,-000.09,0000.14,0000.50,0000.62,16.8,23.4,02.6,01.8,0673.9,30.9
2021-06-04T03:27:00Z,00000200,00000000,0001.12,0000.95,0000.31,-000.11,0000.15,-000.31,0000.40,0000.32,0000.18,16.8,23.4,02.7,01.8,0673.9,30.9
2021-06-04T03:28:00Z,00000200,00000000,0001.29,0000.99,0000.70,-000.11,0000.26,0000.21,0000.02,0000.26,0000.24,16.8,23.3,02.8,01.9,0673.9,30.9
2021-06-04T03:29:00Z,00000200,00000000,0001.26,0000.77,0000.58,0000.24,0000.14,0000.20,0000.29,0000.35,0000.01,16.8,23.3,02.7,01.8,0673.9,30.9
2021-06-04T03:30:00Z,00000200,00000000,0000.79,0001.14,0000.68,0000.11,-000.09,0000.10,0000.01,0000.05,-000.02,16.8,23.4,02.6,01.8,0673.9,30.9
2021-06-04T03:31:00Z,00000200,00000000,0001.69,0001.02,0000.68,0000.37,-000.01,0000.20,0000.10,0000.08,0000.14,16.9,23.4,02.5,01.7,0673.9,30.9
2021-06-04T03:32:00Z,00000200,00000000,0000.90,0000.97,0000.54,-000.44,0000.07,0000.47,0000.46,0000.32,0000.25,16.9,23.4,02.6,01.7,0673.9,30.9
2021-06-04T03:33:00Z,00000200,00000000,0000.76,0000.67,0000.32,-000.14,0000.23,0000.11,0000.16,-000.09,0000.37,16.9,23.4,02.6,01.7,0673.9,30.9
2021-06-04T03:34:00Z,00000200,00000000,0001.39,0000.85,0000.47,0000.16,0000.11,0000.20,0000.21,0000.59,0000.08,16.9,23.4,02.5,01.7,0673.9,30.9
2021-06-04T03:35:00Z,00000200,00000000,0000.65,0000.80,0000.69,-000.40,0000.21,-000.06,0000.17,-000.07,-000.28,16.9,23.4,02.5,01.7,0673.9,30.9
2021-06-04T03:36:00Z,00000200,00000000,0001.33,0000.81,0000.44,-000.30,0000.05,-000.23,0000.11,-000.16,0000.19,16.9,23.4,02.4,01.6,0673.9,30.9
2021-06-04T03:37:00Z,00000200,00000000,0001.10,0000.41,0000.54,-000.11,0000.09,0000.02,0000.29,-000.04,0000.06,16.9,23.4,02.4,01.6,0673.9,30.9
2021-06-04T03:38:00Z,00000200,00000000,0000.85,0000.90,0000.60,0000.14,0000.29,0000.09,0000.20,0000.68,0000.27,16.9,23.4,02.4,01.6,0674.0,30.9
2021-06-04T03:39:00Z,00000200,00000000,0001.33,0000.63,0000.16,-000.51,0000.23,0000.34,0000.13,0000.21,0000.30,16.8,23.4,02.4,01.6,0674.0,30.9
2021-06-04T03:40:00Z,00000200,00000000,0000.82,0000.88,0000.39,-000.11,0000.03,0000.02,0000.43,0000.61,0000.26,16.8,23.4,02.6,01.7,0674.0,30.9
2021-06-04T03:41:00Z,00000200,00000000,0001.19,0000.75,0000.68,-000.63,0000.18,0000.03,0000.18,-000.50,-000.14,16.8,23.4,02.5,01.7,0674.0,30.9
2021-06-04T03:42:00Z,00000200,00000000,0001.15,0000.70,0000.39,-000.45,0000.01,0000.28,0000.09,0000.26,-000.09,16.8,23.3,02.5,01.7,0674.0,30.9
2021-06-04T03:43:00Z,00000200,00000000,0001.37,0000.55,0000.57,-000.22,0000.18,0000.28,0000.05,0000.48,0000.48,16.8,23.3,02.5,01.7,0674.0,30.9
2021-06-04T03:44:00Z,00000200,00000000,0000.61,0000.81,0000.53,-000.03,0000.06,-000.02,0000.60,0000.28,0000.50,16.8,23.3,02.4,01.6,0674.0,30.9
2021-06-04T03:45:00Z,00000200,00000000,0001.59,0000.63,0000.39,-000.39,0000.36,0000.16,0000.05,0000.19,0000.05,16.8,23.3,02.4,01.6,0674.1,30.9
2021-06-04T03:46:00Z,00000200,00000000,0001.52,0000.87,0000.40,-000.43,0000.17,-000.01,0000.29,-000.07,-000.10,16.9,23.4,02.4,01.6,0674.1,30.9
2021-06-04T03:47:00Z,00000200,00000000,0001.13,0000.60,0000.47,0000.11,0000.30,0000.23,0000.47,0000.43,0000.68,16.9,23.4,02.4,01.6,0674.1,30.9
2021-06-04T03:48:00Z,00000200,00000000,0001.03,0000.71,0000.40,-000.19,0000.37,0000.16,0000.17,0000.26,-000.06,16.9,23.4,02.3,01.6,0674.1,30.9
2021-06-04T03:49:00Z,00000200,00000000,0001.03,0000.64,0000.59,-000.26,0000.09,0000.23,0000.02,-000.11,0000.13,16.9,23.4,02.4,01.6,0674.1,30.9
2021-06-04T03:50:00Z,00000200,00000000,0001.52,0000.97,0000.68,-000.16,-000.00,0000.21,0000.18,0000.91,0000.52,16.9,23.4,02.4,01.6,0674.1,30.9
2021-06-04T03:51:00Z,00000200,00000000,0000.78,0000.86,0000.41,-000.47,0000.18,0000.05,0000.31,0000.02,-000.20,16.9,23.4,02.3,01.5,0674.1,30.9
2021-06-04T03:52:00Z,00000200,00000000,0000.95,0000.95,0000.40,-000.41,-000.06,0000.10,0000.27,0000.13,0000.26,16.8,23.4,02.4,01.6,0674.1,30.9
2021-06-04T03:53:00Z,00000200,00000000,0001.23,0001.12,0000.65,-000.09,0000.10,0000.13,0000.07,-000.20,-000.02,16.8,23.4,02.3,01.5,0674.1,30.9
2021-06-04T03:54:00Z,00000200,00000000,0000.98,0000.88,0000.54,0000.72,0000.27,0000.18,0000.57,0000.38,0000.37,16.8,23.4,02.3,01.5,0674.1,30.9
2021-06-04T03:55:00Z,00000200,00000000,0001.28,0001.03,0000.55,-000.04,-000.10,0000.25,-000.24,0000.04,0000.05,16.8,23.3,02.3,01.6,0674.1,30.9
2021-06-04T03:56:00Z,00000200,00000000,0000.70,0000.75,0000.35,-000.21,0000.08,0000.10,0000.20,0000.11,-000.14,16.8,23.4,02.3,01.6,0674.1,30.9
2021-06-04T03:57:00Z,00000200,40000000,,,,,,,0000.52,0000.51,0000.38,16.8,23.4,02.6,01.7,0674.1,30.9
2021-06-04T03:58:00Z,00000200,60000000,,,,,,,-000.26,-000.06,0000.10,16.5,23.5,02.3,01.5,0673.1,30.9
2021-06-04T03:59:00Z,00000200,20000000,,,,,,,0000.23,0000.24,0000.02,16.5,23.6,02.2,01.4,0673.1,30.9
